When you browse on this site, cookies collect data to enhance your experience and personalize the content and advertising you see.
Visit our Privacy Policy to learn more. By continuing to use the site, you agree to this use of cookies and data.

Hourly Weather Delhi

Today, 12 July, Sunday

Time Temperature Precipitation Wind Pressure Humidity
00:00 +36°C° 0.4 mm 3 mps 728 mmHg 54%
01:00 +35°C° 0.4 mm 2 mps 728 mmHg 56%
02:00 +35°C° 0.4 mm 2 mps 727 mmHg 58%
03:00 +34°C° 0.6 mm 2 mps 728 mmHg 60%
04:00 +34°C° 0.6 mm 2 mps 728 mmHg 62%
05:00 +32°C° 0.6 mm 2 mps 728 mmHg 64%
06:00 +34°C° 0.2 mm 2 mps 729 mmHg 61%
07:00 +35°C° 0.2 mm 2 mps 729 mmHg 59%
08:00 +35°C° 0.2 mm 2 mps 730 mmHg 56%
09:00 +37°C° 0 mm 2 mps 730 mmHg 51%
10:00 +39°C° 0 mm 2 mps 730 mmHg 45%
11:00 +40°C° 0 mm 2 mps 729 mmHg 40%
12:00 +41°C° 0 mm 2 mps 729 mmHg 37%
13:00 +42°C° 0 mm 2 mps 728 mmHg 35%
14:00 +42°C° 0 mm 2 mps 728 mmHg 32%
15:00 +43°C° 0 mm 3 mps 728 mmHg 32%
16:00 +43°C° 0 mm 3 mps 727 mmHg 32%
17:00 +43°C° 0 mm 3 mps 727 mmHg 32%
18:00 +43°C° 0 mm 3 mps 727 mmHg 33%
19:00 +42°C° 0 mm 3 mps 727 mmHg 35%
20:00 +41°C° 0 mm 4 mps 727 mmHg 36%
21:00 +40°C° 0 mm 3 mps 727 mmHg 38%
22:00 +39°C° 0 mm 2 mps 728 mmHg 39%
23:00 +39°C° 0 mm 2 mps 728 mmHg 41%

Tomorrow, 13 July, Monday

Time Temperature Precipitation Wind Pressure Humidity
00:00 +38°C° 0 mm 2 mps 728 mmHg 42%
01:00 +37°C° 0 mm 1 mps 728 mmHg 43%
02:00 +36°C° 0 mm 1 mps 728 mmHg 44%
03:00 +37°C° 0.1 mm 2 mps 728 mmHg 45%
04:00 +37°C° 0.1 mm 2 mps 728 mmHg 46%
05:00 +37°C° 0.1 mm 3 mps 728 mmHg 48%
06:00 +37°C° 0.1 mm 3 mps 729 mmHg 46%
07:00 +38°C° 0.1 mm 3 mps 729 mmHg 45%
08:00 +40°C° 0.1 mm 4 mps 730 mmHg 44%
09:00 +41°C° 0 mm 4 mps 729 mmHg 39%
10:00 +43°C° 0 mm 4 mps 729 mmHg 35%
11:00 +44°C° 0 mm 4 mps 729 mmHg 31%
12:00 +44°C° 0 mm 4 mps 729 mmHg 30%
13:00 +45°C° 0 mm 4 mps 728 mmHg 29%
14:00 +45°C° 0 mm 4 mps 727 mmHg 28%
15:00 +45°C° 0 mm 4 mps 727 mmHg 27%
16:00 +45°C° 0 mm 4 mps 726 mmHg 26%
17:00 +47°C° 0 mm 4 mps 726 mmHg 25%
18:00 +45°C° 0.1 mm 4 mps 726 mmHg 27%
19:00 +44°C° 0.1 mm 4 mps 726 mmHg 29%
20:00 +42°C° 0.1 mm 4 mps 726 mmHg 31%
21:00 +42°C° 0.1 mm 4 mps 727 mmHg 32%
22:00 +42°C° 0.1 mm 4 mps 727 mmHg 32%
23:00 +42°C° 0.1 mm 4 mps 727 mmHg 33%

Day after tomorrow, 14 July, Tuesday

Time Temperature Precipitation Wind Pressure Humidity
00:00 +41°C° 0 mm 4 mps 727 mmHg 34%
01:00 +41°C° 0 mm 5 mps 727 mmHg 36%
02:00 +40°C° 0 mm 5 mps 728 mmHg 38%
03:00 +40°C° 0 mm 5 mps 728 mmHg 39%
04:00 +40°C° 0 mm 5 mps 728 mmHg 41%
05:00 +39°C° 0 mm 5 mps 728 mmHg 43%
06:00 +40°C° 0 mm 5 mps 728 mmHg 41%
07:00 +40°C° 0 mm 6 mps 729 mmHg 40%
08:00 +41°C° 0 mm 6 mps 729 mmHg 38%
09:00 +42°C° 0 mm 6 mps 729 mmHg 35%
10:00 +45°C° 0 mm 5 mps 729 mmHg 32%
11:00 +46°C° 0 mm 5 mps 729 mmHg 28%
12:00 +47°C° 0 mm 5 mps 729 mmHg 26%
13:00 +48°C° 0 mm 4 mps 728 mmHg 24%
14:00 +49°C° 0 mm 4 mps 727 mmHg 21%
15:00 +48°C° 0 mm 4 mps 727 mmHg 22%
16:00 +48°C° 0 mm 4 mps 726 mmHg 22%
17:00 +47°C° 0 mm 4 mps 726 mmHg 23%
18:00 +45°C° 0 mm 3 mps 726 mmHg 24%
19:00 +45°C° 0 mm 2 mps 727 mmHg 24%
20:00 +43°C° 0 mm 2 mps 727 mmHg 25%
21:00 +43°C° 0 mm 2 mps 727 mmHg 27%
22:00 +43°C° 0 mm 3 mps 728 mmHg 30%
23:00 +42°C° 0 mm 3 mps 728 mmHg 32%

15 July, Wednesday

Time Temperature Precipitation Wind Pressure Humidity
00:00 +40°C° 0 mm 3 mps 728 mmHg 37%
01:00 +40°C° 0 mm 4 mps 728 mmHg 42%
02:00 +38°C° 0 mm 4 mps 728 mmHg 47%
03:00 +38°C° 0 mm 4 mps 728 mmHg 49%
04:00 +37°C° 0 mm 4 mps 729 mmHg 51%
05:00 +36°C° 0 mm 4 mps 729 mmHg 52%
06:00 +36°C° 0 mm 4 mps 729 mmHg 53%
07:00 +37°C° 0 mm 5 mps 730 mmHg 54%
08:00 +37°C° 0 mm 5 mps 730 mmHg 54%
09:00 +39°C° 0.1 mm 5 mps 730 mmHg 50%
10:00 +40°C° 0.1 mm 4 mps 730 mmHg 46%
11:00 +42°C° 0.1 mm 4 mps 730 mmHg 42%
12:00 +42°C° 0 mm 3 mps 729 mmHg 39%
13:00 +43°C° 0 mm 3 mps 728 mmHg 37%
14:00 +44°C° 0 mm 3 mps 728 mmHg 34%
15:00 +44°C° 0 mm 3 mps 727 mmHg 34%
16:00 +43°C° 0 mm 3 mps 727 mmHg 34%
17:00 +43°C° 0 mm 3 mps 726 mmHg 34%
18:00 +43°C° 0 mm 4 mps 727 mmHg 37%
19:00 +42°C° 0 mm 4 mps 727 mmHg 39%
20:00 +41°C° 0 mm 5 mps 727 mmHg 42%
21:00 +40°C° 0.2 mm 5 mps 728 mmHg 45%
22:00 +39°C° 0.2 mm 5 mps 728 mmHg 48%
23:00 +37°C° 0.2 mm 5 mps 729 mmHg 51%

16 July, Thursday

Time Temperature Precipitation Wind Pressure Humidity
00:00 +36°C° 0.1 mm 5 mps 728 mmHg 53%
01:00 +36°C° 0.1 mm 4 mps 728 mmHg 55%
02:00 +36°C° 0.1 mm 4 mps 728 mmHg 57%
03:00 +35°C° 0.6 mm 3 mps 728 mmHg 59%
04:00 +35°C° 0.6 mm 3 mps 728 mmHg 61%
05:00 +34°C° 0.6 mm 3 mps 728 mmHg 63%
06:00 +35°C° 0.1 mm 3 mps 729 mmHg 61%
07:00 +35°C° 0.1 mm 4 mps 729 mmHg 58%
08:00 +36°C° 0.1 mm 4 mps 730 mmHg 55%
09:00 +37°C° 0 mm 4 mps 730 mmHg 51%
10:00 +38°C° 0 mm 3 mps 730 mmHg 46%
11:00 +40°C° 0 mm 3 mps 729 mmHg 42%
12:00 +40°C° 0 mm 3 mps 729 mmHg 40%
13:00 +42°C° 0 mm 3 mps 728 mmHg 39%
14:00 +42°C° 0 mm 3 mps 728 mmHg 37%
15:00 +42°C° 0.3 mm 3 mps 727 mmHg 40%
16:00 +40°C° 0.3 mm 3 mps 727 mmHg 42%
17:00 +39°C° 0.3 mm 3 mps 726 mmHg 45%
18:00 +39°C° 0.1 mm 3 mps 726 mmHg 45%
19:00 +39°C° 0.1 mm 3 mps 727 mmHg 46%
20:00 +39°C° 0.1 mm 2 mps 727 mmHg 46%
21:00 +38°C° 0 mm 2 mps 727 mmHg 47%
22:00 +38°C° 0 mm 2 mps 727 mmHg 47%
23:00 +38°C° 0 mm 2 mps 728 mmHg 47%

17 July, Friday

Time Temperature Precipitation Wind Pressure Humidity
00:00 +37°C° 0.6 mm 3 mps 728 mmHg 51%
01:00 +36°C° 0.6 mm 3 mps 728 mmHg 55%
02:00 +35°C° 0.6 mm 4 mps 728 mmHg 59%
03:00 +35°C° 3.3 mm 4 mps 728 mmHg 61%
04:00 +35°C° 3.3 mm 4 mps 728 mmHg 63%
05:00 +34°C° 3.3 mm 5 mps 728 mmHg 65%
06:00 +35°C° 2 mm 4 mps 728 mmHg 63%
07:00 +35°C° 2 mm 4 mps 729 mmHg 61%
08:00 +36°C° 2 mm 4 mps 729 mmHg 59%
09:00 +37°C° 0 mm 4 mps 729 mmHg 53%
10:00 +40°C° 0 mm 4 mps 729 mmHg 48%
11:00 +40°C° 0 mm 3 mps 729 mmHg 43%
12:00 +41°C° 0 mm 4 mps 729 mmHg 43%
13:00 +41°C° 0 mm 4 mps 728 mmHg 43%
14:00 +41°C° 0 mm 4 mps 728 mmHg 43%
15:00 +41°C° 0 mm 4 mps 727 mmHg 43%
16:00 +41°C° 0 mm 4 mps 727 mmHg 42%
17:00 +41°C° 0 mm 4 mps 727 mmHg 42%
18:00 +40°C° 0 mm 4 mps 727 mmHg 45%
19:00 +40°C° 0 mm 4 mps 727 mmHg 47%
20:00 +38°C° 0 mm 4 mps 727 mmHg 50%
21:00 +37°C° 0 mm 3 mps 727 mmHg 51%
22:00 +37°C° 0 mm 3 mps 727 mmHg 52%
23:00 +37°C° 0 mm 3 mps 728 mmHg 53%
Show more